Regional Weather Roundup
Issued by NWS

Home | Current Version | Previous Version | Graphics & Text | Print | Product List | Glossary On
Versions: 1 2 3 4 5 6 7 8 9 10 11 12 13 14 15 16 17 18 19 20 21 22 23 24 25 26 27 28 29 30 31 32 33 34 35 36 37 38 39 40 41 42 43 44 45 46 47 48 49 50
000
ASUS43 KDMX 280707
RWRIA

WEATHER ROUNDUP FOR IOWA
NATIONAL WEATHER SERVICE DES MOINES IA
100 AM CST SUN DEC 28 2014

NOTE: "FAIR" INDICATES FEW OR NO CLOUDS BELOW 12,000 FEET WITH NO
SIGNIFICANT WEATHER AND/OR OBSTRUCTIONS TO VISIBILITY.

* - THESE STATIONS ARE NOT NWS STATIONS...THUS NOT UNDER NWS
QUALITY CONTROL.  THEY ALSO DO NOT REPORT WEATHER SUCH
AS PRECIPITATION OR FOG.

IAZ001>003-012>014-020>022-031>034-043>046-280800-
   NORTHWEST IOWA

CITY           SKY/WX    TMP DP  RH WIND       PRES   REMARKS
CARROLL *      CLEAR     14  10  85 W6        30.16F WCI   5
CHEROKEE *     PTCLDY     5   5 100 CALM      30.14F
DENISON *      CLEAR     12  12 100 SW3       30.15F
LE MARS *      CLEAR      5   3  92 CALM      30.14F
ORANGE CITY *  CLEAR     10   9  92 S3        30.10F
SHELDON *      CLEAR      7   5  92 S5        30.10F WCI  -2
SIOUX CITY     PTCLDY     7   4  87 E7        30.15F WCI  -5
SPENCER        CLEAR      7   3  84 SW7       30.11F WCI  -5
STORM LAKE *   CLEAR      9   7  92 SW9       30.12F WCI  -5
$$

IAZ055>058-069>071-079>083-090>094-280800-
   SOUTHWEST IOWA

CITY           SKY/WX    TMP DP  RH WIND       PRES   REMARKS
ATLANTIC *     CLEAR     14  12  92 SW3       30.18F
AUDUBON *      CLEAR     16   9  73 SW6       30.17S WCI   7
CLARINDA *     CLEAR     14  14 100 S3        30.23F
COUNCIL BLFS * CLEAR     18  18 100 SW5       30.17F WCI  11
CRESTON *      CLEAR     14  12  92 W7        30.19S WCI   4
HARLAN  *      CLEAR     12  12 100 CALM      30.21F
LAMONI         CLEAR     19  16  88 SW5       30.20F WCI  12
RED OAK *      CLEAR     16  14  93 CALM      30.21S
SHENANDOAH *   CLEAR     16  14  93 SW3       30.22F
$$

IAZ047>049-059>061-072>074-084-280800-
   CENTRAL IOWA

CITY           SKY/WX    TMP DP  RH WIND       PRES   REMARKS
AMES           CLEAR     16  12  84 W5        30.18F WCI   9
ANKENY *       CLEAR     18  14  86 CALM      30.20S
CHARITON *     CLEAR     18  14  86 S3        30.20S
DES MOINES     CLEAR     18  13  80 CALM      30.20S
GRINNELL*      CLEAR     18  14  86 W5        30.18S WCI  11
KNOXVILLE *    CLEAR     19  16  86 SW6       30.19S WCI  11
MARSHALLTOWN   CLEAR     16  12  84 W5        30.16F WCI   9
PELLA *        CLEAR     19  18  93 CALM      30.21S
PERRY *          N/A     16  14  93 CALM      30.18F
$$

IAZ004>006-015-016-023>025-035-036-280800-
   NORTH CENTRAL IOWA

CITY           SKY/WX    TMP DP  RH WIND       PRES   REMARKS
ALGONA *       CLEAR     12   9  85 SW10      30.13F WCI  -1
CLARION *      CLEAR      7   5  92 W5        30.15F WCI  -2
ESTHERVILLE    CLEAR     10   7  87 SW7       30.10F WCI  -1
FORT DODGE *   CLEAR     10   7  85 CALM      30.15F
MASON CITY     CLEAR     13   8  81 W13       30.14F WCI  -2
FOREST CITY *  CLEAR     12   7  79 SW3       30.12F
IOWA FALLS *     N/A     16  12  86 W5        30.16F WCI   9
$$

IAZ007>011-017>019-026>030-037>042-050>054-066-280800-
   NORTHEAST IOWA

CITY           SKY/WX    TMP DP  RH WIND       PRES   REMARKS
CEDAR RAPIDS   CLEAR     15  14  95 CALM      30.17F
CHARLES CITY * CLEAR     12   9  85 W7        30.14S WCI   2
CLINTON *      CLEAR     19  14  79 NW13      30.20R WCI   7
DECORAH *      CLEAR     14  10  85 W5        30.12S WCI   6
DUBUQUE        CLEAR     17  12  80 W6        30.14S WCI   9
MONTICELLO *   CLEAR     18  16  93 W5        30.17S WCI  11
OELWEIN *      CLEAR     16  14  93 W7        30.15F WCI   6
WATERLOO       CLEAR     16  12  84 W6        30.16F WCI   7
$$

IAZ064-065-067-068-078-280800-
   EAST CENTRAL IOWA

CITY           SKY/WX    TMP DP  RH WIND       PRES   REMARKS
DAVENPORT      CLEAR     20  15  81 W9        30.18F WCI   9
IOWA CITY      CLEAR     19  15  84 SW3       30.22R
MT. PLEASANT * CLOUDY    27  21  80 W5        30.21S WCI  21
MUSCATINE *    CLEAR     23  18  80 NW6       30.22S WCI  16
QUAD CITIES    CLEAR     23  15  71 W8        30.19S WCI  14
$$

IAZ062-063-075>077-085>089-095>099-280800-
   SOUTHEAST IOWA

CITY           SKY/WX    TMP DP  RH WIND       PRES   REMARKS
BURLINGTON     CLOUDY    28  23  81 W7        30.20S WCI  21
FAIRFIELD *    CLOUDY    27  19  74 W9G16     30.21R WCI  17
FORT MADISON * CLOUDY    28  23  80 W7        30.22R WCI  21
KEOKUK *       CLOUDY    28  23  80 W6        30.22R WCI  22
OSKALOOSA *      N/A     19  18  93 W5        30.21S WCI  13
CENTERVILLE *  CLEAR     21  21 100 SW7       30.22S WCI  13
OTTUMWA        CLEAR     22  18  85 W7        30.20S WCI  13
WASHINGTON *   PTCLDY    23  21  93 W10       30.21R WCI  12
$$

ABBREVIATIONS USED IN REMARKS
   TC - TEMPERATURES IN CELSIUS
  WCI - WIND CHILL INDEX
   HX - HEAT INDEX
  VSB - VISIBILITY
$$



USA.gov is the U.S. government's official web portal to all federal, state and local government web resources and services.